"Pseudo-MPEC" for C2UMMX2

Created 2020 May 23 20:07:06 UT using Find_Orb

Click here for an explanation of pseudo-MPECs

 
 Astrometry: 
     C2UMMX2  C2020 05 22.45454 22 00 51.47 +04 52 16.9    ~5MBb 20.4 GVNEOCPG96
     C2UMMX2  C2020 05 22.45921 22 00 52.10 +04 52 20.1    ~5MBb 20.0 GVNEOCPG96
     C2UMMX2  C2020 05 22.46389 22 00 52.71 +04 52 22.7    ~5MBb 20.3 GVNEOCPG96
     C2UMMX2  C2020 05 22.46856 22 00 53.30 +04 52 26.0    ~5MBb       VNEOCPG96
     C2UMMX2  C2020 05 23.45311 22 03 04.13 +05 02 52.3    ~5NBM 20.4 GVNEOCPG96
     C2UMMX2  C2020 05 23.45561 22 03 04.45 +05 02 53.8    ~5NBM 20.2 GVNEOCPG96
     C2UMMX2  C2020 05 23.45813 22 03 04.77 +05 02 55.8    ~5NBM 20.4 GVNEOCPG96

Station data:
(G96) Mt. Lemmon Survey  (N32.442754 W110.788720)  US/Arizona.  Observers T.
   A. Pruyne, B. M. Africano, E. J. Christensen, G. A. Farneth, D. C. Fuls,
   A. R. Gibbs, A. D. Grauer, H. Gröller, J. A. Johnson, R. A. Kowalski, S.
   M. Larson, G. J. Leonard, D. Rankin, R. L. Seaman, F. C. Shelly. 1.5-m
   reflector + 10K CCD.

Orbital elements:  C2UMMX2
   Perihelion 2020 Jun 29.546741 +/- 83.1 TT = 13:07:18 (JD 2459030.046741)
Epoch 2020 May 23.0 TT = JDT 2458992.5   Earth MOID: 0.6399   AutoNEOCP
M 352.52615163 +/- 70               (J2000 ecliptic)
n   0.19905451 +/- 0.376            Peri.  148.75554 +/- 120
a   2.90505720 +/- 3.66             Node   166.91589 +/- 27
e   0.4385984 +/- 0.254             Incl.   16.49722 +/- 30
P   4.95                   H 17.3   G  0.15   U 12.1  SR
q 1.63090348 +/- 0.525    Q 4.17921092 +/- 15.7
From 7 observations 2020 May 22-23 (24.1 hr); mean residual 0".15
Residuals in arcseconds: 
200522 G96  .08-  .03-    200522 G96  .21-  .08+    200523 G96  .13-  .24+    
200522 G96  .18+  .17+    200523 G96  .12+  .07-    
200522 G96  .12+  .22-    200523 G96  .01+  .16-    

Ephemerides (geocentric):
Date (UTC) HH   RA              Dec         delta   r     elong  mag " sig PA
---- -- -- --  -------------   -----------  ------ ------ -----  --- ---- ---
2020 05 23 20  22 03 54.308   +05 06 55.93  1.3546 1.6632  88.0 20.6 12.7 173
2020 05 23 21  22 03 59.829   +05 07 22.24  1.3542 1.6632  88.0 20.6 14.3 171
2020 05 23 22  22 04 05.349   +05 07 48.53  1.3539 1.6631  88.1 20.6 16.0 170
2020 05 23 23  22 04 10.868   +05 08 14.82  1.3535 1.6630  88.1 20.6 17.8 169
2020 05 24 00  22 04 16.387   +05 08 41.09  1.3531 1.6629  88.1 20.6 19.7 168
2020 05 24 01  22 04 21.904   +05 09 07.36  1.3528 1.6629  88.1 20.6 21.7 167
2020 05 24 02  22 04 27.422   +05 09 33.61  1.3524 1.6628  88.1 20.6 23.7 167
2020 05 24 03  22 04 32.938   +05 09 59.86  1.3521 1.6627  88.1 20.6 25.8 166
2020 05 24 04  22 04 38.454   +05 10 26.09  1.3517 1.6627  88.2 20.6 28.1 166
2020 05 24 05  22 04 43.969   +05 10 52.32  1.3513 1.6626  88.2 20.6 30.3 166
2020 05 24 06  22 04 49.484   +05 11 18.53  1.3510 1.6625  88.2 20.6 32.7 165
2020 05 24 07  22 04 54.997   +05 11 44.73  1.3506 1.6624  88.2 20.6 35.2 165
2020 05 24 08  22 05 00.511   +05 12 10.93  1.3503 1.6624  88.2 20.6 37.7 165
2020 05 24 09  22 05 06.023   +05 12 37.11  1.3499 1.6623  88.2 20.6 40.4 165
2020 05 24 10  22 05 11.535   +05 13 03.29  1.3496 1.6622  88.2 20.6 43.1 165
2020 05 24 11  22 05 17.046   +05 13 29.45  1.3492 1.6622  88.3 20.6 45.9 164
2020 05 24 12  22 05 22.556   +05 13 55.60  1.3488 1.6621  88.3 20.6 48.7 164
2020 05 24 13  22 05 28.066   +05 14 21.75  1.3485 1.6620  88.3 20.6 51.7 164
2020 05 24 14  22 05 33.575   +05 14 47.88  1.3481 1.6619  88.3 20.6 54.8 164
2020 05 24 15  22 05 39.084   +05 15 14.00  1.3478 1.6619  88.3 20.6 57.9 164
2020 05 24 16  22 05 44.591   +05 15 40.11  1.3474 1.6618  88.3 20.6 61.1 164
2020 05 24 17  22 05 50.098   +05 16 06.21  1.3470 1.6617  88.3 20.6 64.4 164
2020 05 24 18  22 05 55.605   +05 16 32.30  1.3467 1.6617  88.4 20.6 67.8 164
2020 05 24 19  22 06 01.110   +05 16 58.39  1.3463 1.6616  88.4 20.6 71.2 164
2020 05 24 20  22 06 06.615   +05 17 24.46  1.3460 1.6615  88.4 20.6 74.8 164
2020 05 24 21  22 06 12.120   +05 17 50.51  1.3456 1.6615  88.4 20.6 78.4 164
2020 05 24 22  22 06 17.623   +05 18 16.56  1.3453 1.6614  88.4 20.6 82.1 164
2020 05 24 23  22 06 23.126   +05 18 42.60  1.3449 1.6613  88.4 20.6 85.9 163
2020 05 25 00  22 06 28.629   +05 19 08.63  1.3445 1.6612  88.4 20.6 89.8 163
2020 05 25 01  22 06 34.130   +05 19 34.65  1.3442 1.6612  88.5 20.6 93.8 163
2020 05 25 02  22 06 39.631   +05 20 00.65  1.3438 1.6611  88.5 20.6 97.9 163
2020 05 25 03  22 06 45.131   +05 20 26.65  1.3435 1.6610  88.5 20.6  102 163
2020 05 25 04  22 06 50.631   +05 20 52.64  1.3431 1.6610  88.5 20.6  106 163
2020 05 25 05  22 06 56.130   +05 21 18.61  1.3428 1.6609  88.5 20.6  111 163
2020 05 25 06  22 07 01.628   +05 21 44.58  1.3424 1.6608  88.5 20.6  115 163
2020 05 25 07  22 07 07.125   +05 22 10.53  1.3420 1.6608  88.5 20.6  119 163
2020 05 25 08  22 07 12.622   +05 22 36.47  1.3417 1.6607  88.6 20.6  124 163
2020 05 25 09  22 07 18.118   +05 23 02.40  1.3413 1.6606  88.6 20.6  129 163
2020 05 25 10  22 07 23.614   +05 23 28.32  1.3410 1.6605  88.6 20.6  133 163
2020 05 25 11  22 07 29.109   +05 23 54.24  1.3406 1.6605  88.6 20.6  138 163
2020 05 25 12  22 07 34.603   +05 24 20.13  1.3403 1.6604  88.6 20.6  143 163
2020 05 25 13  22 07 40.096   +05 24 46.02  1.3399 1.6603  88.6 20.6  148 163
2020 05 25 14  22 07 45.589   +05 25 11.90  1.3396 1.6603  88.6 20.6  153 163
2020 05 25 15  22 07 51.081   +05 25 37.77  1.3392 1.6602  88.7 20.6  159 163
2020 05 25 16  22 07 56.572   +05 26 03.62  1.3388 1.6601  88.7 20.6  164 163
2020 05 25 17  22 08 02.062   +05 26 29.47  1.3385 1.6601  88.7 20.6  169 163
2020 05 25 18  22 08 07.552   +05 26 55.30  1.3381 1.6600  88.7 20.6  175 163
2020 05 25 19  22 08 13.041   +05 27 21.13  1.3378 1.6599  88.7 20.6  180 163